Find Starlink 35918

NORAD ID: 66643 Int'l Des: 2025-271 Owner: SPXS Country: US Constellation: starlink operational
LEOCIRCULAR

Live Position

Loading 3D Globe...

About Starlink 35918

Description loading...

Upcoming Passes

Passes for default location (London). Set your location on the main map for personalized predictions.

Altitude History

Loading altitude history...

Two-Line Element Set

1 66643U 25271AC 26103.66957449 .00024139 00000-0 82337-3 0 9999
2 66643 53.1591 337.3526 0002093 78.5990 281.5246 15.30242947 22922
Epoch: Apr 13, 2026 • Age: 19 hours

Current Status

Altitude 478.4 km
Velocity 7.63 km/s
Sub-Earth Point 45.30°N, 12.6°E
Launch Date Nov 23, 2025
Age 0.3 years
Type internet

Technical Details

Classification Payload
Mass 575.00 kg
Dry Mass 530.00 kg
Total Mass 575.00 kg
Length 0.30 m
Diameter 4.10 m
Span 29.00 m
Shape Box + pan
Manufacturer SPXS
Bus Type Starlink V2MO
Phase Status In Orbit
Owner/State SPXS/US

Most Searched